[[{"header":{"parameterUnit":"m.s-1","parameterCategory":1,"la1":30.2991,"la2":30.254,"lo1":-89.0895,"lo2":-89.0444,"dy":0.0017,"dx":0.0017,"nx":28,"ny":28,"refTime":"2025-02-13T09:00:00:Z","depth":0,"parameterNumber":2,"parameterNumberName":"U-component_of_WINDS"},"data":[0,0,0,0,0,0,0,0,0,0,0,0,0,0,0,0,0,0,0,0,0,0,0,0,0,0,0,0,0,0,0,0,0,0,0,0,0,0,0,0,0,0,0,0,0,0,0,0,0,0,0,0,0,0,0,0,0,0,-5.6322,-5.6323,0,-5.6376,-5.6377,-5.6377,-5.624,-5.6236,-5.6231,-5.6227,-5.6285,-5.6291,-5.6296,0,0,0,0,0,0,0,0,0,0,0,0,0,-5.6103,-5.6108,-5.6322,-5.6323,-5.6324,-5.6376,-5.6377,-5.6378,-5.6241,-5.6236,-5.623,-5.6225,-5.6284,-5.629,-5.6297,0,0,0,0,0,0,0,0,0,0,0,0,0,-5.6182,-5.6109,-5.6322,-5.6262,-5.6257,-5.6376,-5.6377,-5.6378,-5.6242,-5.6235,-5.6229,-5.6223,-5.6281,-5.6289,-5.6298,-5.6479,0,0,-5.6323,-5.6327,0,0,0,0,0,0,0,0,-5.6178,-5.619,-5.627,-5.6266,-5.6261,-5.6295,-5.6321,-5.6412,-5.6244,-5.6248,-5.6227,-5.622,-5.6294,-5.6301,-5.6325,-5.6481,-5.6484,-5.6324,-5.6329,-5.6333,-5.6335,0,0,0,0,0,0,0,-5.6172,-5.6187,-5.6343,-5.6271,-5.6266,-5.6232,-5.6237,-5.6337,-5.6307,-5.6247,-5.6237,-5.6245,-5.629,-5.6317,-5.6326,-5.6485,-5.6324,-5.6331,-5.6336,-5.634,-5.6793,-5.68,0,0,0,0,0,0,-5.6174,-5.6183,-5.6342,-5.6345,-5.6202,-5.6242,-5.6246,-5.629,-5.6305,-5.6301,-5.6251,-5.6238,-5.6306,-5.6316,-5.6327,-5.6541,-5.6332,-5.634,-5.6345,-5.6786,-5.6795,-5.6802,0,0,0,0,0,0,-5.617,-5.619,-5.634,-5.6262,-5.6278,-5.6252,-5.6303,-5.6295,-5.6322,-5.6308,-5.6302,-5.6284,-5.6302,-5.6315,-5.6442,-5.6541,-5.6344,-5.6352,-5.6778,-5.6789,-5.6799,-5.697,0,0,0,0,0,0,-5.6164,-5.6189,-5.6257,-5.6264,-5.6283,-5.6454,-5.6309,-5.6301,-5.6336,-5.6321,-5.6338,-5.6334,-5.6298,-5.643,-5.645,-5.6549,-5.6358,-5.6769,-5.6783,-5.6795,-5.6955,-5.6985,-5.7011,0,0,0,0,0,-5.6157,-5.6304,-5.6261,-5.6281,-5.6367,-5.646,-5.647,-5.6425,-5.6345,-5.6414,-5.6404,-5.6334,-5.6527,-5.6444,-5.6466,-5.6569,-5.6763,-5.6779,-5.6794,-5.6943,-5.6979,-5.701,0,0,0,0,0,0,-5.631,-5.6304,-5.6257,-5.641,-5.6436,-5.6436,-5.6522,-5.6464,-5.6515,-5.6498,-5.644,-5.6445,-5.6583,-5.6588,-5.6497,-5.6745,-5.6631,-5.6652,-5.6737,-5.6771,-5.6798,-5.6795,-5.6365,0,0,0,0,0,-5.6361,-5.6436,-5.6426,-5.6563,-5.6578,-5.6548,-5.6586,-5.6549,-5.6574,-5.6585,-5.6585,-5.6613,-5.668,-5.6726,-5.6786,-5.6955,-5.6957,-5.7036,-5.7063,-5.7086,-5.7106,-5.7196,-5.7231,-5.6854,-5.6854,-5.6854,0,0,-5.6469,-5.6474,-5.6525,-5.6594,-5.661,-5.6689,-5.6558,-5.6648,-5.6707,-5.6599,-5.6719,-5.672,-5.6747,-5.6896,-5.6962,-5.6905,-5.721,-5.7106,-5.7125,-5.7132,-5.7216,-5.7252,-5.7284,-5.6865,-5.6863,-5.6862,0,0,-5.6705,-5.6717,-5.6832,-5.685,-5.6876,-5.6855,-5.6883,-5.6891,-5.6888,-5.7007,-5.6928,-5.6997,-5.7113,-5.7136,-5.7163,-5.7409,-5.7346,-5.743,-5.7575,-5.7664,-5.7694,-5.772,-5.7809,-5.7841,-5.7449,-5.7449,-5.745,0,-5.6836,-5.6952,-5.6898,-5.6994,-5.7026,-5.6931,-5.7048,-5.7068,-5.7114,-5.7139,-5.7073,-5.7218,-5.7229,-5.7383,-5.7443,-5.7467,-5.7498,-5.7429,-5.7693,-5.7719,-5.7743,-5.7827,-5.786,-5.7459,-5.7458,-5.7457,-5.7456,0,-5.7112,-5.7194,-5.7283,-5.7329,-5.7371,-5.7477,-5.744,-5.749,-5.7448,-5.7434,-5.7557,-5.7568,-5.7629,-5.7663,-5.7623,-5.7811,-5.7775,-5.7703,-5.7588,-5.779,-5.7868,-5.79,-5.7474,-5.747,-5.7467,-5.7465,0,0,-5.7448,-5.7461,-5.7495,-5.7515,-5.7536,-5.7599,-5.77,-5.7759,-5.7804,-5.7838,-5.7922,-5.8023,-5.7956,-5.7987,-5.7949,-5.8027,-5.8222,-5.7945,-5.7945,-5.7998,-5.8432,-5.8488,-5.8526,-5.818,-5.8186,-5.8191,-5.843,0,-5.7682,-5.7856,-5.781,-5.7984,-5.8059,-5.7969,-5.8058,-5.8081,-5.8071,-5.8134,-5.8122,-5.8195,-5.81,-5.8119,-5.8192,-5.8183,-5.8309,-5.8165,-5.826,-5.8264,-5.8258,-5.8566,-5.8625,-5.8851,-5.846,-5.8465,-5.8469,0,-5.798,-5.8025,-5.8206,-5.8214,-5.8244,-5.8325,-5.8376,-5.8437,-5.8461,-5.8448,-5.8483,-5.843,-5.8531,-5.8414,-5.8553,-5.8456,-5.8492,-5.8494,-5.8501,-5.851,-5.838,-5.8585,-5.8921,-5.8956,-5.8516,-5.8512,-5.8509,0,-5.8209,-5.8314,-5.8436,-5.8455,-5.8469,-5.8527,-5.8536,-5.8554,-5.8593,-5.8637,-5.8662,-5.8718,-5.875,-5.8795,-5.8759,-5.8676,-5.8905,-5.8784,-5.8898,-5.89,-5.8952,-5.8949,-5.9301,-5.8972,-5.8972,-5.8971,-5.8971,0,-5.8476,-5.8591,-5.8539,-5.8615,-5.874,-5.8687,-5.8813,-5.8811,-5.8828,-5.8902,-5.8828,-5.8899,-5.8846,-5.8913,-5.8885,-5.9006,-5.902,-5.9013,-5.9005,-5.9021,-5.9023,-5.9045,-5.9029,-5.898,-5.8978,-5.8976,-5.8975,0,-5.8754,-5.8724,-5.8851,-5.8853,-5.8856,-5.8949,-5.8951,-5.9021,-5.9004,-5.9099,-5.9119,-5.9094,-5.9169,-5.9136,-5.9216,-5.9197,-5.9352,-5.9322,-5.9344,-5.9337,-5.9453,-5.9444,-5.9833,-5.9882,-5.9521,-5.9525,-5.9527,0,-5.8928,-5.9014,-5.9025,-5.9069,-5.9082,-5.9154,-5.9193,-5.9143,-5.9187,-5.9222,-5.9289,-5.9357,-5.9409,-5.9533,-5.9523,-5.9584,-5.9555,-5.9688,-5.9564,-5.9578,-5.956,-5.9556,-5.9565,-5.9713,-5.9718,-5.9721,-5.9724,0,-5.9241,-5.9221,-5.9279,-5.9334,-5.9382,-5.9422,-5.9456,-5.9497,-5.9449,-5.9502,-5.9577,-5.9618,-5.9698,-5.9768,-5.9821,-5.983,-5.9771,-5.9762,-5.9792,-5.9811,-5.982,-5.9818,-5.9414,-5.9754,-5.9751,-5.9749,-5.9747,-5.9746,-5.9473,-5.9545,-5.9564,-5.9632,-5.9652,-5.9686,-5.9752,-5.9744,-5.9805,-5.9867,-5.9833,-5.9922,-5.9945,-6.001,-6.0028,-6.0097,-6.0045,-6.0088,-6.0099,-6.0111,-6.0127,-5.9808,-6.0106,-6.0105,-6.0104,-6.0104,-6.0103,0,-5.9782,-5.979,-5.9853,-5.9902,-5.9956,-5.9893,-5.9927,-5.9977,-6.0055,-6.0081,-6.0134,-6.0221,-6.0288,-6.0283,-6.0344,-6.0401,-6.0375,-6.0419,-6.0415,-6.0419,-6.0169,-6.0138,-6.0439,-6.0439,-6.0439,-6.0439,-6.0439,-6.0439,-5.995,-6.007,-6.0053,-6.0182,-6.0189,-6.0274,-6.0299,-6.033,-6.035,-6.0451,-6.0506,-6.0501,-6.0515,-6.0577,-6.0636,-6.0633,-6.066,-6.0715,-6.0702,-6.047,-6.0436,-6.0405,-6.0375,-6.0721,-6.0721,-6.0946,-6.0948,-6.095]},{"header":{"parameterUnit":"m.s-1","parameterCategory":1,"la1":30.2991,"la2":30.254,"lo1":-89.0895,"lo2":-89.0444,"dy":0.0017,"dx":0.0017,"nx":28,"ny":28,"refTime":"2025-02-13T09:00:00:Z","depth":0,"parameterNumber":3,"parameterNumberName":"V-component_of_WINDS"},"data":[0,0,0,0,0,0,0,0,0,0,0,0,0,0,0,0,0,0,0,0,0,0,0,0,0,0,0,0,0,0,0,0,0,0,0,0,0,0,0,0,0,0,0,0,0,0,0,0,0,0,0,0,0,0,0,0,0,0,-2.7531,-2.7531,0,-2.7551,-2.7551,-2.7551,-2.7538,-2.7537,-2.7537,-2.7536,-2.7555,-2.7556,-2.7557,0,0,0,0,0,0,0,0,0,0,0,0,0,-2.748,-2.7481,-2.7531,-2.7531,-2.7532,-2.7551,-2.7551,-2.7551,-2.7538,-2.7537,-2.7536,-2.7536,-2.7555,-2.7556,-2.7557,0,0,0,0,0,0,0,0,0,0,0,0,0,-2.7501,-2.7481,-2.7531,-2.7527,-2.7527,-2.7551,-2.7551,-2.7551,-2.7538,-2.7537,-2.7536,-2.7535,-2.7554,-2.7556,-2.7558,-2.7586,0,0,-2.7563,-2.7563,0,0,0,0,0,0,0,0,-2.75,-2.7503,-2.7528,-2.7528,-2.7528,-2.7541,-2.754,-2.7563,-2.7538,-2.7534,-2.7536,-2.7535,-2.7551,-2.7553,-2.7559,-2.7587,-2.7587,-2.7563,-2.7564,-2.7564,-2.7565,0,0,0,0,0,0,0,-2.7499,-2.7502,-2.7539,-2.7528,-2.7528,-2.7524,-2.7526,-2.7544,-2.7547,-2.7534,-2.7533,-2.7536,-2.7551,-2.7557,-2.7559,-2.7588,-2.7563,-2.7564,-2.7565,-2.7566,-2.7637,-2.7638,0,0,0,0,0,0,-2.7498,-2.7501,-2.7538,-2.754,-2.7511,-2.7526,-2.7528,-2.7538,-2.7547,-2.7548,-2.7537,-2.7535,-2.7555,-2.7557,-2.756,-2.7592,-2.7564,-2.7566,-2.7567,-2.7637,-2.7638,-2.7639,0,0,0,0,0,0,-2.7497,-2.7501,-2.7538,-2.752,-2.7524,-2.7527,-2.7538,-2.7538,-2.7545,-2.7549,-2.7549,-2.7543,-2.7554,-2.7557,-2.7579,-2.7592,-2.7567,-2.7568,-2.7635,-2.7637,-2.7638,-2.7657,0,0,0,0,0,0,-2.7495,-2.7501,-2.7512,-2.752,-2.7525,-2.7557,-2.7539,-2.7539,-2.7548,-2.7546,-2.7555,-2.7555,-2.7554,-2.7577,-2.758,-2.7594,-2.7569,-2.7634,-2.7636,-2.7638,-2.7655,-2.7659,-2.7662,0,0,0,0,0,-2.7493,-2.7517,-2.7513,-2.7517,-2.754,-2.7558,-2.7561,-2.7559,-2.7549,-2.756,-2.7562,-2.7555,-2.759,-2.7579,-2.7583,-2.7597,-2.7633,-2.7636,-2.7638,-2.7654,-2.7658,-2.7662,0,0,0,0,0,0,-2.7511,-2.7518,-2.7514,-2.7541,-2.7549,-2.7556,-2.757,-2.7564,-2.7575,-2.7573,-2.757,-2.7572,-2.7594,-2.7598,-2.7585,-2.7624,-2.761,-2.7613,-2.7621,-2.7625,-2.7629,-2.7627,-2.7571,0,0,0,0,0,-2.7518,-2.7532,-2.7538,-2.7561,-2.7566,-2.7567,-2.7575,-2.7573,-2.7581,-2.7584,-2.7588,-2.7596,-2.7609,-2.7617,-2.7629,-2.7656,-2.7657,-2.7668,-2.7671,-2.7674,-2.7676,-2.7689,-2.7693,-2.7646,-2.7646,-2.7646,0,0,-2.7532,-2.7538,-2.7548,-2.7565,-2.7571,-2.7585,-2.757,-2.7586,-2.7597,-2.7587,-2.7607,-2.761,-2.7618,-2.7642,-2.7653,-2.7646,-2.769,-2.7676,-2.7679,-2.768,-2.7692,-2.7696,-2.77,-2.7647,-2.7647,-2.7647,0,0,-2.7566,-2.7573,-2.7592,-2.7598,-2.7607,-2.7607,-2.7612,-2.7619,-2.7621,-2.7641,-2.7633,-2.7645,-2.7668,-2.7673,-2.7679,-2.7713,-2.7706,-2.7717,-2.7735,-2.7747,-2.7751,-2.7754,-2.7765,-2.7769,-2.772,-2.772,-2.772,0,-2.7583,-2.7605,-2.7603,-2.7619,-2.7626,-2.7617,-2.7636,-2.7642,-2.7654,-2.7659,-2.7651,-2.7678,-2.7683,-2.7707,-2.7715,-2.772,-2.7724,-2.7716,-2.7751,-2.7754,-2.7757,-2.7767,-2.7772,-2.7721,-2.7721,-2.7721,-2.7721,0,-2.7625,-2.764,-2.7654,-2.7666,-2.7675,-2.7692,-2.7691,-2.77,-2.7697,-2.7698,-2.7717,-2.7723,-2.7735,-2.7741,-2.7738,-2.7764,-2.7759,-2.7751,-2.7737,-2.7763,-2.7772,-2.7776,-2.7723,-2.7722,-2.7722,-2.7722,0,0,-2.7671,-2.768,-2.7685,-2.7689,-2.7698,-2.7709,-2.7726,-2.7737,-2.7744,-2.7753,-2.7766,-2.7784,-2.7776,-2.7783,-2.778,-2.7791,-2.7815,-2.7781,-2.7781,-2.7786,-2.7843,-2.7849,-2.7853,-2.7811,-2.7812,-2.7812,-2.7842,0,-2.7704,-2.7733,-2.773,-2.7757,-2.777,-2.7761,-2.7775,-2.7781,-2.7782,-2.7793,-2.7793,-2.7806,-2.7795,-2.7799,-2.7809,-2.781,-2.7827,-2.7808,-2.7822,-2.7823,-2.782,-2.7859,-2.7865,-2.7892,-2.7846,-2.7846,-2.7847,0,-2.7748,-2.7757,-2.7785,-2.7789,-2.7795,-2.7808,-2.7817,-2.7828,-2.7834,-2.7834,-2.784,-2.7835,-2.785,-2.7836,-2.7856,-2.7844,-2.7849,-2.785,-2.7851,-2.7852,-2.7836,-2.7859,-2.7901,-2.7905,-2.7853,-2.7852,-2.7852,0,-2.7777,-2.7796,-2.7815,-2.7819,-2.7826,-2.7835,-2.7837,-2.7843,-2.7849,-2.7858,-2.7861,-2.7872,-2.7877,-2.7884,-2.7882,-2.7872,-2.7902,-2.7888,-2.7901,-2.7901,-2.7908,-2.7908,-2.7951,-2.7913,-2.7913,-2.7913,-2.7913,0,-2.7814,-2.7832,-2.7828,-2.784,-2.7858,-2.7854,-2.7873,-2.7874,-2.7879,-2.789,-2.7882,-2.7893,-2.7889,-2.7899,-2.7897,-2.7913,-2.7916,-2.7916,-2.7915,-2.7916,-2.7916,-2.7919,-2.7917,-2.7914,-2.7914,-2.7913,-2.7913,0,-2.785,-2.7849,-2.7869,-2.7872,-2.7874,-2.7887,-2.789,-2.79,-2.79,-2.7914,-2.7917,-2.7916,-2.7927,-2.7925,-2.7938,-2.7936,-2.7956,-2.7954,-2.7954,-2.7953,-2.7967,-2.7965,-2.8013,-2.8018,-2.7978,-2.7978,-2.7979,0,-2.7874,-2.7887,-2.7891,-2.7898,-2.7901,-2.7912,-2.7919,-2.7915,-2.7922,-2.7928,-2.7938,-2.7948,-2.7956,-2.7974,-2.7974,-2.7984,-2.798,-2.7996,-2.7982,-2.7982,-2.7979,-2.7978,-2.7979,-2.7999,-2.8,-2.8,-2.8,0,-2.7915,-2.7913,-2.7923,-2.7932,-2.7939,-2.7946,-2.7952,-2.7958,-2.7954,-2.7962,-2.7973,-2.7979,-2.7991,-2.8001,-2.801,-2.8012,-2.8005,-2.8005,-2.8008,-2.8009,-2.8009,-2.8008,-2.7961,-2.8004,-2.8003,-2.8003,-2.8003,-2.8003,-2.7945,-2.7955,-2.796,-2.797,-2.7974,-2.7979,-2.7988,-2.7989,-2.7998,-2.8007,-2.8004,-2.8016,-2.802,-2.8031,-2.8034,-2.8043,-2.8037,-2.8042,-2.8043,-2.8044,-2.8045,-2.8008,-2.8044,-2.8044,-2.8044,-2.8044,-2.8044,0,-2.7985,-2.7987,-2.7996,-2.8004,-2.8012,-2.8005,-2.8011,-2.8017,-2.8028,-2.8033,-2.804,-2.8052,-2.8061,-2.8062,-2.807,-2.8077,-2.8074,-2.808,-2.8079,-2.8079,-2.8051,-2.8047,-2.8082,-2.8082,-2.8082,-2.8082,-2.8082,-2.8082,-2.8007,-2.8023,-2.8022,-2.8039,-2.8041,-2.8052,-2.8056,-2.8061,-2.8064,-2.8077,-2.8085,-2.8085,-2.8087,-2.8096,-2.8103,-2.8103,-2.8106,-2.8113,-2.8111,-2.8085,-2.8081,-2.8078,-2.8073,-2.8114,-2.8114,-2.8138,-2.8139,-2.8139]}]]